NWS Melbourne » East Central Florida Hourly Weather Roundup

 

ASUS42 KMLB 302012
RWRMLB
HOURLY WEATHER ROUNDUP AROUND FLORIDA
NATIONAL WEATHER SERVICE OFFICE MELBOURNE FL
400 PM EDT THU JUL 30 2015
  
CITY           SKY/WX    TMP DP  RH WIND       PRES   REMARKS
MELBOURNE      PTSUNNY   87  75  67 SE12      29.92F                  
FORT PIERCE    PTSUNNY   90  75  61 SW9G16    29.93F HX 100           
ORLANDO INTL   TSTM      89  73  59 W14       29.93F                  
DAYTONA BEACH  MOSUNNY   90  77  65 SW5       29.92F HX 103           
VERO BEACH     PTSUNNY   87  74  64 E9        29.94F                  
$$
...ELSEWHERE ACROSS CENTRAL FLORIDA...
  
CITY           SKY/WX    TMP DP  RH WIND       PRES   REMARKS
PATRICK AFB    PTSUNNY   85  78  79 S13       29.91F                  
KSC            CLOUDY    92  73  54 E5        29.90F HX 101           
CAPE CANAVERAL PTSUNNY   91  77  62 SE9       29.90F HX 104           
TITUSVILLE     MOSUNNY   91  70  49 SW10      29.91F                  
ORLANDO EXEC   CLOUDY    87  76  69 SW17      29.92F THUNDER          
LEESBURG       PTSUNNY   82  73  74 NE5       29.95F                  
THE VILLAGES     N/A     79  79 100 NW5G12    29.86R                  
SANFORD        MOSUNNY   89  75  63 NE7       29.91F HX  99           
DELAND           N/A     91  75  59 CALM      29.93F HX 102           
NEW SMYRNA BCH MOSUNNY   90  75  62 SE5       29.94F HX 100           
ORMOND BEACH   MOSUNNY   82  75  78 N5        29.92F                  
WINTER HAVEN   PTSUNNY   86  76  71 SW12      29.97F                  
KISSIMMEE      PTSUNNY   90  73  58 SW15G23   29.94F HX  98           
OKEECHOBEE     CLOUDY    73  72  94 CALM      29.97F THUNDER          
TAMPA          PTSUNNY   89  76  65 W12       29.96F HX 100           
$$
...NORTHERN FLORIDA...
  
CITY           SKY/WX    TMP DP  RH WIND       PRES   REMARKS
PALM COAST     PTCLDY    90  75  62 E10       29.92F HX 100           
ST AUGUSTINE   SUNNY     88  78  72 E8        29.92F HX 101           
OCALA          PTSUNNY   84  75  74 S8        29.94F                  
GAINESVILLE    CLOUDY    87  75  67 W10       29.92F                  
JACKSONVILLE   MOSUNNY   92  71  50 SW7       29.90F HX  98           
TALLAHASSEE    PTSUNNY   86  75  69 SW16      29.91F THUNDER          
$$
...ALONG THE SOUTHEAST COAST TO THE KEYS...
  
CITY           SKY/WX    TMP DP  RH WIND       PRES   REMARKS
STUART         PTSUNNY   91  72  52 W9        29.95F HX  98           
WEST PALM BCH  PTSUNNY   90  68  48 W15       29.98F                  
MIAMI          CLOUDY    92  69  47 SW9       29.99F                  
KEY WEST       CLOUDY    87  76  69 SW8       30.01F                  
$$
...MARINE REPORTS...
  
STATION/POSITION TIME  TEMP    WIND        PRES    WAVE   SWELL
                       AIR SEA DIR/SP/G            HT/PER HT/PER/DIR
                 (UTC) (F)     (DEG/KT/KT) (MB)    (FT/S) (FT/S/D)
ST AUGUSTINE FP  2000   82 85   60/  8/  8 1013.8F
20NM E CAPE CANA 1950   81 82  140/ 10/ 10 1013.9F   1/ 7   2/ 60/ 7
120 E NEW SMYRNA 1950   83 84  240/ 14/ 16 1014.4F   4/ 5   2/ 80/ 8
TRIDENT PIER     1942   86 79  130/  5/  9 1013.8F
SEBASTIAN INLET  2000   82     130/ 12     1014.0
4NM E PORT CANAV 1940      81                N/A     1/10
6NM NE FPR INLET 1951      80                N/A     1/11
SETTLEMENT PT GB 2000   85     210/  8/  9 1016.3F
$$
 

 

Link to: East Central Florida Hourly Weather Roundup


USA.gov is the U.S. government's official web portal to all federal, state and local government web resources and services.